Location: Unspecified
(41.1850°N, 73.2650°W)
Time: 04:33:24
(UTC+00:00)

Okean 1 - Pass Details

Date: 14 December 2025
Orbit: 465 x 485 km, 82.5° (Epoch: 13 January)

Event Time Altitude Azimuth Distance (km) Brightness Sun altitude
Rises 23:24:31 0° 206° (SSW) 2,521 7.2 -21.7°
Reaches altitude 10° 23:26:44 10° 216° (SW) 1,644 6.4 -22.1°
Maximum altitude 23:30:02 34° 282° (WNW) 808 4.7 -22.7°
Enters shadow 23:32:25 16° 341° (NNW) 1,313 5.3 -23.1°
